Time,TemperatureF,DewpointF,PressureIn,WindDirection,WindDirectionDegrees,WindSpeedMPH,WindSpeedGustMPH,Humidity,HourlyPrecipIn,Conditions,Clouds,dailyrainin,SoftwareType,DateUTC
2013-01-19 00:01:00,29.5,20.9,30.40,SE,136,0.0,0.0,70,0.00,,,0.00,Wunderground v.1.15,2013-01-19 05:01:00,
2013-01-19 00:02:00,29.5,20.9,30.40,SE,136,0.0,0.0,70,0.00,,,0.00,Wunderground v.1.15,2013-01-19 05:02:00,
2013-01-19 00:04:00,29.5,20.9,30.40,SSW,209,0.0,0.0,70,0.00,,,0.00,Wunderground v.1.15,2013-01-19 05:04:00,
2013-01-19 00:07:00,29.5,20.9,30.40,SSW,209,0.0,0.0,70,0.00,,,0.00,Wunderground v.1.15,2013-01-19 05:07:00,
2013-01-19 00:12:00,29.5,21.3,30.40,South,169,0.0,2.0,71,0.00,,,0.00,Wunderground v.1.15,2013-01-19 05:12:00,
2013-01-19 00:18:00,29.5,21.3,30.40,SW,216,1.0,2.0,71,0.00,,,0.00,Wunderground v.1.15,2013-01-19 05:18:00,
2013-01-19 00:23:00,29.5,21.3,30.40,SW,216,0.0,1.0,71,0.00,,,0.00,Wunderground v.1.15,2013-01-19 05:23:00,
2013-01-19 00:29:00,29.5,21.6,30.40,SSW,195,0.0,0.0,72,0.00,,,0.00,Wunderground v.1.15,2013-01-19 05:29:00,
2013-01-19 00:34:00,29.5,21.9,30.38,South,186,0.0,2.0,73,0.00,,,0.00,Wunderground v.1.15,2013-01-19 05:34:00,
2013-01-19 00:39:00,29.5,21.9,30.38,South,182,0.0,0.0,73,0.00,,,0.00,Wunderground v.1.15,2013-01-19 05:39:00,
2013-01-19 00:45:00,29.5,22.2,30.38,South,185,0.0,1.0,74,0.00,,,0.00,Wunderground v.1.15,2013-01-19 05:45:00,
2013-01-19 00:50:00,29.5,22.2,30.38,SSW,193,1.0,4.0,74,0.00,,,0.00,Wunderground v.1.15,2013-01-19 05:50:00,
2013-01-19 00:55:00,29.5,22.2,30.38,SE,134,1.0,7.0,74,0.00,,,0.00,Wunderground v.1.15,2013-01-19 05:55:00,
2013-01-19 01:00:00,29.5,22.6,30.38,SSW,198,1.0,1.0,75,0.00,,,0.00,Wunderground v.1.15,2013-01-19 06:00:00,
2013-01-19 01:06:00,29.5,22.9,30.38,South,172,1.0,2.0,76,0.00,,,0.00,Wunderground v.1.15,2013-01-19 06:06:00,
2013-01-19 01:11:00,29.5,22.9,30.38,SSW,198,1.0,1.0,76,0.00,,,0.00,Wunderground v.1.15,2013-01-19 06:11:00,
2013-01-19 01:17:00,29.5,22.9,30.37,South,182,1.0,2.0,76,0.00,,,0.00,Wunderground v.1.15,2013-01-19 06:17:00,
2013-01-19 01:22:00,29.5,23.2,30.37,South,182,0.0,1.0,77,0.00,,,0.00,Wunderground v.1.15,2013-01-19 06:22:00,
2013-01-19 01:27:00,29.7,23.4,30.37,SSW,206,0.0,1.0,77,0.00,,,0.00,Wunderground v.1.15,2013-01-19 06:27:00,
2013-01-19 01:33:00,29.7,23.7,30.37,SSW,206,1.0,2.0,78,0.00,,,0.00,Wunderground v.1.15,2013-01-19 06:33:00,
2013-01-19 01:38:00,29.8,23.8,30.37,South,176,1.0,2.0,78,0.00,,,0.00,Wunderground v.1.15,2013-01-19 06:38:00,
2013-01-19 01:43:00,29.8,23.8,30.37,South,181,2.0,2.0,78,0.00,,,0.00,Wunderground v.1.15,2013-01-19 06:43:00,
2013-01-19 01:49:00,30.0,24.0,30.37,South,184,2.0,7.0,78,0.00,,,0.00,Wunderground v.1.15,2013-01-19 06:49:00,
2013-01-19 01:54:00,30.1,24.1,30.37,SSW,198,2.0,6.0,78,0.00,,,0.00,Wunderground v.1.15,2013-01-19 06:54:00,
2013-01-19 01:59:00,30.3,24.0,30.37,SSW,198,3.0,7.0,77,0.00,,,0.00,Wunderground v.1.15,2013-01-19 06:59:00,
2013-01-19 02:04:00,30.6,24.2,30.37,SSW,206,4.0,7.0,77,0.00,,,0.00,Wunderground v.1.15,2013-01-19 07:04:00,
2013-01-19 02:09:00,30.6,24.2,30.37,SW,216,3.0,13.0,77,0.00,,,0.00,Wunderground v.1.15,2013-01-19 07:09:00,
2013-01-19 02:15:00,30.7,24.0,30.36,SSW,203,3.0,8.0,76,0.00,,,0.00,Wunderground v.1.15,2013-01-19 07:15:00,
2013-01-19 02:20:00,30.9,24.2,30.36,South,171,3.0,8.0,76,0.00,,,0.00,Wunderground v.1.15,2013-01-19 07:20:00,
2013-01-19 02:25:00,31.0,24.0,30.36,SSE,162,3.0,8.0,75,0.00,,,0.00,Wunderground v.1.15,2013-01-19 07:25:00,
2013-01-19 02:30:00,31.2,24.2,30.36,SSW,208,3.0,3.0,75,0.00,,,0.00,Wunderground v.1.15,2013-01-19 07:30:00,
2013-01-19 02:35:00,31.3,24.3,30.36,SSE,151,3.0,7.0,75,0.00,,,0.00,Wunderground v.1.15,2013-01-19 07:35:00,
2013-01-19 02:41:00,31.5,24.2,30.36,South,191,4.0,7.0,74,0.00,,,0.00,Wunderground v.1.15,2013-01-19 07:41:00,
2013-01-19 02:47:00,31.6,24.3,30.36,South,188,4.0,7.0,74,0.00,,,0.00,Wunderground v.1.15,2013-01-19 07:47:00,
2013-01-19 02:52:00,31.6,24.3,30.36,SSW,202,3.0,4.0,74,0.00,,,0.00,Wunderground v.1.15,2013-01-19 07:52:00,
2013-01-19 02:57:00,31.8,24.5,30.36,SW,217,4.0,7.0,74,0.00,,,0.00,Wunderground v.1.15,2013-01-19 07:57:00,
2013-01-19 03:03:00,31.8,24.1,30.36,SSW,212,3.0,10.0,73,0.00,,,0.00,Wunderground v.1.15,2013-01-19 08:03:00,
2013-01-19 03:08:00,31.8,24.1,30.36,SSW,203,3.0,10.0,73,0.00,,,0.00,Wunderground v.1.15,2013-01-19 08:08:00,
2013-01-19 03:13:00,31.9,24.2,30.36,SSW,196,3.0,6.0,73,0.00,,,0.00,Wunderground v.1.15,2013-01-19 08:13:00,
2013-01-19 03:18:00,31.9,23.9,30.36,South,181,4.0,6.0,72,0.00,,,0.00,Wunderground v.1.15,2013-01-19 08:18:00,
2013-01-19 03:24:00,31.9,23.9,30.36,SSW,212,3.0,4.0,72,0.00,,,0.00,Wunderground v.1.15,2013-01-19 08:24:00,
2013-01-19 03:30:00,31.9,23.9,30.35,SSW,199,2.0,2.0,72,0.00,,,0.00,Wunderground v.1.15,2013-01-19 08:30:00,
2013-01-19 03:35:00,31.8,23.8,30.35,SSE,168,2.0,6.0,72,0.00,,,0.00,Wunderground v.1.15,2013-01-19 08:35:00,
2013-01-19 03:40:00,31.8,23.8,30.35,South,188,2.0,6.0,72,0.00,,,0.00,Wunderground v.1.15,2013-01-19 08:40:00,
2013-01-19 03:45:00,31.8,23.8,30.35,SW,219,2.0,7.0,72,0.00,,,0.00,Wunderground v.1.15,2013-01-19 08:45:00,
2013-01-19 03:52:00,31.6,23.6,30.35,WSW,248,2.0,6.0,72,0.00,,,0.00,Wunderground v.1.15,2013-01-19 08:52:00,
2013-01-19 03:57:00,31.6,23.6,30.35,SSW,206,2.0,9.0,72,0.00,,,0.00,Wunderground v.1.15,2013-01-19 08:57:00,
2013-01-19 04:03:00,31.5,23.8,30.35,SSW,205,2.0,4.0,73,0.00,,,0.00,Wunderground v.1.15,2013-01-19 09:03:00,
2013-01-19 04:08:00,31.5,23.8,30.35,SW,223,2.0,4.0,73,0.00,,,0.00,Wunderground v.1.15,2013-01-19 09:08:00,
2013-01-19 04:14:00,31.5,23.8,30.35,South,189,3.0,8.0,73,0.00,,,0.00,Wunderground v.1.15,2013-01-19 09:14:00,
2013-01-19 04:19:00,31.5,23.8,30.34,SSW,196,2.0,8.0,73,0.00,,,0.00,Wunderground v.1.15,2013-01-19 09:19:00,
2013-01-19 04:25:00,31.3,23.6,30.34,SSW,196,2.0,7.0,73,0.00,,,0.00,Wunderground v.1.15,2013-01-19 09:25:00,
2013-01-19 04:30:00,31.3,23.6,30.34,South,188,3.0,3.0,73,0.00,,,0.00,Wunderground v.1.15,2013-01-19 09:30:00,
2013-01-19 04:35:00,31.3,23.6,30.34,SSW,198,3.0,6.0,73,0.00,,,0.00,Wunderground v.1.15,2013-01-19 09:35:00,
2013-01-19 04:40:00,31.2,23.9,30.34,South,191,4.0,6.0,74,0.00,,,0.00,Wunderground v.1.15,2013-01-19 09:40:00,
2013-01-19 04:46:00,31.2,23.9,30.33,SSW,213,4.0,8.0,74,0.00,,,0.00,Wunderground v.1.15,2013-01-19 09:46:00,
2013-01-19 04:51:00,31.2,23.9,30.33,SSW,196,3.0,4.0,74,0.00,,,0.00,Wunderground v.1.15,2013-01-19 09:51:00,
2013-01-19 04:57:00,31.2,23.9,30.33,SSW,213,3.0,6.0,74,0.00,,,0.00,Wunderground v.1.15,2013-01-19 09:57:00,
2013-01-19 05:02:00,31.2,23.9,30.33,SSW,206,4.0,4.0,74,0.00,,,0.00,Wunderground v.1.15,2013-01-19 10:02:00,
2013-01-19 05:07:00,31.2,23.9,30.33,South,188,3.0,7.0,74,0.00,,,0.00,Wunderground v.1.15,2013-01-19 10:07:00,
2013-01-19 05:12:00,31.2,23.9,30.33,SE,143,5.0,7.0,74,0.00,,,0.00,Wunderground v.1.15,2013-01-19 10:12:00,
2013-01-19 05:18:00,31.3,24.0,30.33,SSW,200,4.0,7.0,74,0.00,,,0.00,Wunderground v.1.15,2013-01-19 10:18:00,
2013-01-19 05:23:00,31.3,24.0,30.33,SSW,203,3.0,3.0,74,0.00,,,0.00,Wunderground v.1.15,2013-01-19 10:23:00,
2013-01-19 05:28:00,31.3,24.0,30.33,SSW,206,2.0,3.0,74,0.00,,,0.00,Wunderground v.1.15,2013-01-19 10:28:00,
2013-01-19 05:33:00,31.3,24.0,30.33,South,181,3.0,3.0,74,0.00,,,0.00,Wunderground v.1.15,2013-01-19 10:33:00,
2013-01-19 05:39:00,31.3,24.0,30.33,South,189,3.0,7.0,74,0.00,,,0.00,Wunderground v.1.15,2013-01-19 10:39:00,
2013-01-19 05:44:00,31.3,24.0,30.32,SSW,193,3.0,4.0,74,0.00,,,0.00,Wunderground v.1.15,2013-01-19 10:44:00,
2013-01-19 05:49:00,31.3,24.0,30.32,SW,226,4.0,7.0,74,0.00,,,0.00,Wunderground v.1.15,2013-01-19 10:49:00,
2013-01-19 05:54:00,31.3,24.0,30.32,South,179,4.0,4.0,74,0.00,,,0.00,Wunderground v.1.15,2013-01-19 10:54:00,
2013-01-19 05:59:00,31.5,24.2,30.32,South,188,3.0,7.0,74,0.00,,,0.00,Wunderground v.1.15,2013-01-19 10:59:00,
2013-01-19 06:05:00,31.5,24.2,30.32,South,189,2.0,6.0,74,0.00,,,0.00,Wunderground v.1.15,2013-01-19 11:05:00,
2013-01-19 06:10:00,31.5,24.2,30.32,SSW,200,2.0,2.0,74,0.00,,,0.00,Wunderground v.1.15,2013-01-19 11:10:00,
2013-01-19 07:48:00,31.3,24.0,30.32,South,189,3.0,6.0,74,0.00,,,0.00,Wunderground v.1.15,2013-01-19 12:48:00,
2013-01-19 07:49:00,31.3,24.0,30.32,South,178,3.0,6.0,74,0.00,,,0.00,Wunderground v.1.15,2013-01-19 12:49:00,
2013-01-19 07:50:00,31.3,24.0,30.32,South,178,3.0,6.0,74,0.00,,,0.00,Wunderground v.1.15,2013-01-19 12:50:00,
2013-01-19 07:55:00,31.3,24.0,30.32,SSW,209,3.0,10.0,74,0.00,,,0.00,Wunderground v.1.15,2013-01-19 12:55:00,
2013-01-19 08:01:00,31.3,24.0,30.32,SSW,200,3.0,3.0,74,0.00,,,0.00,Wunderground v.1.15,2013-01-19 13:01:00,
2013-01-19 08:02:00,31.3,24.0,30.32,SSW,200,3.0,3.0,74,0.00,,,0.00,Wunderground v.1.15,2013-01-19 13:02:00,
2013-01-19 08:07:00,31.5,24.2,30.32,SW,215,2.0,3.0,74,0.00,,,0.00,Wunderground v.1.15,2013-01-19 13:07:00,
2013-01-19 08:13:00,31.5,24.2,30.32,South,174,1.0,6.0,74,0.00,,,0.00,Wunderground v.1.15,2013-01-19 13:13:00,
2013-01-19 08:18:00,31.5,24.2,30.32,SW,219,1.0,7.0,74,0.00,,,0.00,Wunderground v.1.15,2013-01-19 13:18:00,
2013-01-19 08:23:00,31.6,24.6,30.32,SSW,199,2.0,4.0,75,0.00,,,0.00,Wunderground v.1.15,2013-01-19 13:23:00,
2013-01-19 08:29:00,31.6,24.6,30.32,SW,234,2.0,6.0,75,0.00,,,0.00,Wunderground v.1.15,2013-01-19 13:29:00,
2013-01-19 08:35:00,31.9,24.9,30.32,SSW,198,4.0,9.0,75,0.00,,,0.00,Wunderground v.1.15,2013-01-19 13:35:00,
2013-01-19 08:40:00,32.1,24.7,30.32,SW,226,4.0,9.0,74,0.00,,,0.00,Wunderground v.1.15,2013-01-19 13:40:00,
2013-01-19 08:45:00,32.4,25.0,30.32,SW,222,4.0,9.0,74,0.00,,,0.00,Wunderground v.1.15,2013-01-19 13:45:00,
2013-01-19 08:51:00,32.5,25.1,30.32,South,184,4.0,4.0,74,0.00,,,0.00,Wunderground v.1.15,2013-01-19 13:51:00,
2013-01-19 08:56:00,32.9,25.2,30.32,South,178,4.0,6.0,73,0.00,,,0.00,Wunderground v.1.15,2013-01-19 13:56:00,
2013-01-19 09:02:00,33.1,25.4,30.32,SW,216,4.0,8.0,73,0.00,,,0.00,Wunderground v.1.15,2013-01-19 14:02:00,
2013-01-19 09:08:00,33.5,25.4,30.32,South,185,4.0,8.0,72,0.00,,,0.00,Wunderground v.1.15,2013-01-19 14:08:00,
2013-01-19 09:14:00,34.7,25.9,30.32,South,175,3.0,9.0,70,0.00,,,0.00,Wunderground v.1.15,2013-01-19 14:14:00,
2013-01-19 09:19:00,35.3,26.1,30.32,SSE,164,2.0,9.0,69,0.00,,,0.00,Wunderground v.1.15,2013-01-19 14:19:00,
2013-01-19 09:24:00,36.5,25.8,30.32,SSW,200,2.0,10.0,65,0.00,,,0.00,Wunderground v.1.15,2013-01-19 14:24:00,
2013-01-19 09:29:00,36.9,26.2,30.32,SSE,158,3.0,10.0,65,0.00,,,0.00,Wunderground v.1.15,2013-01-19 14:29:00,
2013-01-19 09:34:00,37.2,26.1,30.31,SSW,196,4.0,7.0,64,0.00,,,0.00,Wunderground v.1.15,2013-01-19 14:34:00,
2013-01-19 09:40:00,37.8,26.3,30.31,SSE,164,2.0,2.0,63,0.00,,,0.00,Wunderground v.1.15,2013-01-19 14:40:00,
2013-01-19 09:45:00,38.0,26.5,30.31,SSW,212,2.0,4.0,63,0.00,,,0.00,Wunderground v.1.15,2013-01-19 14:45:00,
2013-01-19 09:51:00,38.8,26.9,30.31,SSW,198,3.0,4.0,62,0.00,,,0.00,Wunderground v.1.15,2013-01-19 14:51:00,
2013-01-19 09:56:00,39.3,26.2,30.31,South,176,4.0,6.0,59,0.00,,,0.00,Wunderground v.1.15,2013-01-19 14:56:00,
2013-01-19 10:02:00,39.6,26.0,30.31,South,169,5.0,8.0,58,0.00,,,0.00,Wunderground v.1.15,2013-01-19 15:02:00,
2013-01-19 10:07:00,40.1,26.5,30.31,SSW,195,5.0,9.0,58,0.00,,,0.00,Wunderground v.1.15,2013-01-19 15:07:00,
2013-01-19 10:12:00,40.5,26.4,30.31,South,186,5.0,5.0,57,0.00,,,0.00,Wunderground v.1.15,2013-01-19 15:12:00,
2013-01-19 10:17:00,41.1,27.0,30.30,SSW,198,5.0,6.0,57,0.00,,,0.00,Wunderground v.1.15,2013-01-19 15:17:00,
2013-01-19 10:23:00,41.5,27.0,30.30,SSW,203,5.0,7.0,56,0.00,,,0.00,Wunderground v.1.15,2013-01-19 15:23:00,
2013-01-19 10:28:00,42.3,26.8,30.30,SSE,154,4.0,7.0,54,0.00,,,0.00,Wunderground v.1.15,2013-01-19 15:28:00,
2013-01-19 10:33:00,42.8,26.8,30.29,West,263,2.0,4.0,53,0.00,,,0.00,Wunderground v.1.15,2013-01-19 15:33:00,
2013-01-19 10:38:00,43.2,27.2,30.29,South,191,3.0,6.0,53,0.00,,,0.00,Wunderground v.1.15,2013-01-19 15:38:00,
2013-01-19 10:44:00,43.5,26.1,30.28,SW,220,4.0,7.0,50,0.00,,,0.00,Wunderground v.1.15,2013-01-19 15:44:00,
2013-01-19 10:49:00,44.1,27.6,30.28,SE,138,3.0,7.0,52,0.00,,,0.00,Wunderground v.1.15,2013-01-19 15:49:00,
2013-01-19 10:54:00,44.8,27.3,30.28,South,184,2.0,8.0,50,0.00,,,0.00,Wunderground v.1.15,2013-01-19 15:54:00,
2013-01-19 11:00:00,45.4,26.8,30.27,SSW,192,4.0,9.0,48,0.00,,,0.00,Wunderground v.1.15,2013-01-19 16:00:00,
2013-01-19 11:07:00,45.4,27.3,30.27,South,188,4.0,9.0,49,0.00,,,0.00,Wunderground v.1.15,2013-01-19 16:07:00,
2013-01-19 11:12:00,45.7,26.6,30.27,SE,134,4.0,7.0,47,0.00,,,0.00,Wunderground v.1.15,2013-01-19 16:12:00,
2013-01-19 11:18:00,46.2,26.5,30.25,SW,220,4.0,10.0,46,0.00,,,0.00,Wunderground v.1.15,2013-01-19 16:18:00,
2013-01-19 11:23:00,46.4,26.7,30.25,SSW,202,3.0,7.0,46,0.00,,,0.00,Wunderground v.1.15,2013-01-19 16:23:00,
2013-01-19 11:29:00,47.0,27.8,30.25,SSW,203,3.0,9.0,47,0.00,,,0.00,Wunderground v.1.15,2013-01-19 16:29:00,
2013-01-19 11:34:00,47.3,27.0,30.25,South,191,3.0,7.0,45,0.00,,,0.00,Wunderground v.1.15,2013-01-19 16:34:00,
2013-01-19 11:39:00,47.3,27.0,30.25,SE,138,3.0,8.0,45,0.00,,,0.00,Wunderground v.1.15,2013-01-19 16:39:00,
2013-01-19 11:44:00,47.7,27.4,30.23,SSW,208,3.0,7.0,45,0.00,,,0.00,Wunderground v.1.15,2013-01-19 16:44:00,
2013-01-19 11:50:00,48.0,27.1,30.23,SW,232,4.0,4.0,44,0.00,,,0.00,Wunderground v.1.15,2013-01-19 16:50:00,
2013-01-19 11:55:00,48.5,28.1,30.23,South,169,3.0,6.0,45,0.00,,,0.00,Wunderground v.1.15,2013-01-19 16:55:00,
2013-01-19 12:00:00,48.6,27.1,30.21,SSW,212,3.0,3.0,43,0.00,,,0.00,Wunderground v.1.15,2013-01-19 17:00:00,
2013-01-19 12:06:00,49.1,27.5,30.21,SW,219,3.0,7.0,43,0.00,,,0.00,Wunderground v.1.15,2013-01-19 17:06:00,
2013-01-19 12:13:00,49.5,29.0,30.21,SSE,165,4.0,8.0,45,0.00,,,0.00,Wunderground v.1.15,2013-01-19 17:13:00,
2013-01-19 12:19:00,49.9,28.8,30.19,South,185,3.0,9.0,44,0.00,,,0.00,Wunderground v.1.15,2013-01-19 17:19:00,
2013-01-19 12:26:00,49.8,28.2,30.19,South,184,3.0,4.0,43,0.00,,,0.00,Wunderground v.1.15,2013-01-19 17:26:00,
2013-01-19 12:32:00,49.8,29.3,30.18,South,179,4.0,8.0,45,0.00,,,0.00,Wunderground v.1.15,2013-01-19 17:32:00,
2013-01-19 12:37:00,49.8,28.7,30.18,SSE,151,4.0,6.0,44,0.00,,,0.00,Wunderground v.1.15,2013-01-19 17:37:00,
2013-01-19 12:42:00,50.1,29.6,30.18,SSW,203,4.0,8.0,45,0.00,,,0.00,Wunderground v.1.15,2013-01-19 17:42:00,
2013-01-19 12:48:00,50.1,29.0,30.17,South,186,4.0,7.0,44,0.00,,,0.00,Wunderground v.1.15,2013-01-19 17:48:00,
2013-01-19 12:53:00,49.9,29.4,30.17,SSW,205,5.0,9.0,45,0.00,,,0.00,Wunderground v.1.15,2013-01-19 17:53:00,
2013-01-19 12:59:00,49.9,28.8,30.17,South,175,4.0,5.0,44,0.00,,,0.00,Wunderground v.1.15,2013-01-19 17:59:00,
2013-01-19 13:04:00,50.2,29.1,30.17,SSW,195,2.0,4.0,44,0.00,,,0.00,Wunderground v.1.15,2013-01-19 18:04:00,
2013-01-19 13:09:00,50.5,29.9,30.17,SW,215,2.0,4.0,45,0.00,,,0.00,Wunderground v.1.15,2013-01-19 18:09:00,
2013-01-19 13:15:00,50.8,30.2,30.16,SSW,196,2.0,7.0,45,0.00,,,0.00,Wunderground v.1.15,2013-01-19 18:15:00,
2013-01-19 13:20:00,50.8,30.2,30.16,SSE,162,3.0,7.0,45,0.00,,,0.00,Wunderground v.1.15,2013-01-19 18:20:00,
2013-01-19 13:25:00,51.0,29.3,30.16,ESE,112,3.0,7.0,43,0.00,,,0.00,Wunderground v.1.15,2013-01-19 18:25:00,
2013-01-19 13:32:00,50.8,29.6,30.15,SSE,164,3.0,8.0,44,0.00,,,0.00,Wunderground v.1.15,2013-01-19 18:32:00,
2013-01-19 13:37:00,51.0,29.3,30.15,SE,130,3.0,8.0,43,0.00,,,0.00,Wunderground v.1.15,2013-01-19 18:37:00,
2013-01-19 13:42:00,51.1,29.9,30.15,SSE,161,3.0,3.0,44,0.00,,,0.00,Wunderground v.1.15,2013-01-19 18:42:00,
2013-01-19 13:47:00,51.4,30.7,30.14,SSE,161,2.0,2.0,45,0.00,,,0.00,Wunderground v.1.15,2013-01-19 18:47:00,
2013-01-19 13:53:00,51.6,29.8,30.14,SE,141,3.0,7.0,43,0.00,,,0.00,Wunderground v.1.15,2013-01-19 18:53:00,
2013-01-19 13:59:00,51.4,30.2,30.14,South,188,5.0,7.0,44,0.00,,,0.00,Wunderground v.1.15,2013-01-19 18:59:00,
2013-01-19 14:04:00,51.7,29.9,30.14,SSE,151,3.0,6.0,43,0.00,,,0.00,Wunderground v.1.15,2013-01-19 19:04:00,
2013-01-19 14:09:00,51.9,29.5,30.14,SE,140,3.0,7.0,42,0.00,,,0.00,Wunderground v.1.15,2013-01-19 19:09:00,
2013-01-19 14:14:00,51.9,30.1,30.12,SSE,161,4.0,7.0,43,0.00,,,0.00,Wunderground v.1.15,2013-01-19 19:14:00,
2013-01-19 14:20:00,52.2,29.8,30.12,SSE,154,3.0,3.0,42,0.00,,,0.00,Wunderground v.1.15,2013-01-19 19:20:00,
2013-01-19 14:27:00,52.2,30.4,30.12,SSW,199,2.0,7.0,43,0.00,,,0.00,Wunderground v.1.15,2013-01-19 19:27:00,
2013-01-19 14:32:00,52.2,29.2,30.11,South,178,4.0,11.0,41,0.00,,,0.00,Wunderground v.1.15,2013-01-19 19:32:00,
2013-01-19 14:37:00,52.2,29.2,30.11,SSW,205,4.0,11.0,41,0.00,,,0.00,Wunderground v.1.15,2013-01-19 19:37:00,
2013-01-19 14:42:00,52.2,29.8,30.11,South,175,4.0,8.0,42,0.00,,,0.00,Wunderground v.1.15,2013-01-19 19:42:00,
2013-01-19 14:48:00,52.3,29.3,30.11,SSW,199,4.0,8.0,41,0.00,,,0.00,Wunderground v.1.15,2013-01-19 19:48:00,
2013-01-19 14:54:00,52.3,29.3,30.11,SSW,192,4.0,11.0,41,0.00,,,0.00,Wunderground v.1.15,2013-01-19 19:54:00,
2013-01-19 15:01:00,52.2,29.8,30.09,South,189,4.0,7.0,42,0.00,,,0.00,Wunderground v.1.15,2013-01-19 20:01:00,
2013-01-19 15:06:00,52.0,29.6,30.09,SSW,196,5.0,9.0,42,0.00,,,0.00,Wunderground v.1.15,2013-01-19 20:06:00,
2013-01-19 15:11:00,52.0,29.6,30.09,ESE,119,4.0,4.0,42,0.00,,,0.00,Wunderground v.1.15,2013-01-19 20:11:00,
2013-01-19 15:16:00,52.0,29.6,30.09,South,184,3.0,8.0,42,0.00,,,0.00,Wunderground v.1.15,2013-01-19 20:16:00,
2013-01-19 15:21:00,52.0,29.6,30.09,SSW,193,3.0,7.0,42,0.00,,,0.00,Wunderground v.1.15,2013-01-19 20:21:00,
2013-01-19 15:27:00,52.0,29.0,30.09,SSW,192,5.0,11.0,41,0.00,,,0.00,Wunderground v.1.15,2013-01-19 20:27:00,
2013-01-19 15:32:00,52.0,29.6,30.08,South,184,5.0,8.0,42,0.00,,,0.00,Wunderground v.1.15,2013-01-19 20:32:00,
2013-01-19 15:37:00,52.0,29.6,30.08,SSW,193,5.0,14.0,42,0.00,,,0.00,Wunderground v.1.15,2013-01-19 20:37:00,
2013-01-19 15:43:00,52.0,29.6,30.08,SSE,151,5.0,5.0,42,0.00,,,0.00,Wunderground v.1.15,2013-01-19 20:43:00,
2013-01-19 15:48:00,51.9,30.1,30.08,SSW,200,2.0,8.0,43,0.00,,,0.00,Wunderground v.1.15,2013-01-19 20:48:00,
2013-01-19 15:53:00,51.9,29.5,30.08,SSW,205,3.0,4.0,42,0.00,,,0.00,Wunderground v.1.15,2013-01-19 20:53:00,
2013-01-19 15:59:00,51.7,29.3,30.07,SSE,157,4.0,10.0,42,0.00,,,0.00,Wunderground v.1.15,2013-01-19 20:59:00,
2013-01-19 16:04:00,51.7,29.3,30.07,SSE,150,5.0,9.0,42,0.00,,,0.00,Wunderground v.1.15,2013-01-19 21:04:00,
2013-01-19 16:09:00,51.6,28.6,30.07,South,181,5.0,5.0,41,0.00,,,0.00,Wunderground v.1.15,2013-01-19 21:09:00,
2013-01-19 16:15:00,51.4,29.1,30.07,SSE,168,4.0,7.0,42,0.00,,,0.00,Wunderground v.1.15,2013-01-19 21:15:00,
2013-01-19 16:22:00,51.4,29.1,30.07,South,189,4.0,7.0,42,0.00,,,0.00,Wunderground v.1.15,2013-01-19 21:22:00,
2013-01-19 16:27:00,51.3,29.0,30.07,SSE,154,3.0,8.0,42,0.00,,,0.00,Wunderground v.1.15,2013-01-19 21:27:00,
2013-01-19 16:32:00,51.1,28.8,30.07,SW,220,3.0,13.0,42,0.00,,,0.00,Wunderground v.1.15,2013-01-19 21:32:00,
2013-01-19 16:37:00,51.0,28.7,30.07,SSW,199,5.0,13.0,42,0.00,,,0.00,Wunderground v.1.15,2013-01-19 21:37:00,
2013-01-19 16:43:00,50.8,28.5,30.07,SW,215,6.0,6.0,42,0.00,,,0.00,Wunderground v.1.15,2013-01-19 21:43:00,
2013-01-19 16:49:00,50.7,28.4,30.06,SSE,147,4.0,8.0,42,0.00,,,0.00,Wunderground v.1.15,2013-01-19 21:49:00,
2013-01-19 16:54:00,50.5,28.2,30.06,SW,220,3.0,6.0,42,0.00,,,0.00,Wunderground v.1.15,2013-01-19 21:54:00,
2013-01-19 16:59:00,50.4,28.1,30.06,SSE,167,3.0,6.0,42,0.00,,,0.00,Wunderground v.1.15,2013-01-19 21:59:00,
2013-01-19 17:04:00,50.1,27.9,30.06,SW,215,2.0,8.0,42,0.00,,,0.00,Wunderground v.1.15,2013-01-19 22:04:00,
2013-01-19 17:14:00,49.8,27.6,30.06,South,186,4.0,4.0,42,0.00,,,0.00,Wunderground v.1.15,2013-01-19 22:14:00,
2013-01-19 17:19:00,49.6,27.4,30.06,SW,232,3.0,7.0,42,0.00,,,0.00,Wunderground v.1.15,2013-01-19 22:19:00,
2013-01-19 17:25:00,49.5,27.9,30.06,SSW,212,4.0,7.0,43,0.00,,,0.00,Wunderground v.1.15,2013-01-19 22:25:00,
2013-01-19 17:30:00,49.4,27.8,30.06,SSE,168,3.0,7.0,43,0.00,,,0.00,Wunderground v.1.15,2013-01-19 22:30:00,
2013-01-19 17:36:00,49.1,28.1,30.06,SSW,203,3.0,4.0,44,0.00,,,0.00,Wunderground v.1.15,2013-01-19 22:36:00,
2013-01-19 17:43:00,48.8,27.8,30.06,South,174,3.0,3.0,44,0.00,,,0.00,Wunderground v.1.15,2013-01-19 22:43:00,
2013-01-19 17:48:00,48.6,27.6,30.05,South,179,3.0,6.0,44,0.00,,,0.00,Wunderground v.1.15,2013-01-19 22:48:00,
2013-01-19 17:54:00,48.5,27.6,30.05,South,188,4.0,7.0,44,0.00,,,0.00,Wunderground v.1.15,2013-01-19 22:54:00,
2013-01-19 17:59:00,48.3,27.9,30.05,South,169,4.0,8.0,45,0.00,,,0.00,Wunderground v.1.15,2013-01-19 22:59:00,
2013-01-19 18:04:00,48.2,27.8,30.06,South,178,4.0,8.0,45,0.00,,,0.00,Wunderground v.1.15,2013-01-19 23:04:00,
2013-01-19 18:12:00,47.9,27.6,30.06,South,175,4.0,7.0,45,0.00,,,0.00,Wunderground v.1.15,2013-01-19 23:12:00,
2013-01-19 18:17:00,47.7,27.4,30.05,SSW,195,5.0,7.0,45,0.00,,,0.00,Wunderground v.1.15,2013-01-19 23:17:00,
2013-01-19 18:22:00,47.7,27.9,30.05,South,176,4.0,7.0,46,0.00,,,0.00,Wunderground v.1.15,2013-01-19 23:22:00,
2013-01-19 18:29:00,47.4,28.2,30.05,SSW,196,2.0,3.0,47,0.00,,,0.00,Wunderground v.1.15,2013-01-19 23:29:00,
2013-01-19 18:35:00,47.3,28.1,30.05,SSW,192,4.0,6.0,47,0.00,,,0.00,Wunderground v.1.15,2013-01-19 23:35:00,
2013-01-19 18:40:00,47.0,27.8,30.05,WSW,248,3.0,6.0,47,0.00,,,0.00,Wunderground v.1.15,2013-01-19 23:40:00,
2013-01-19 18:47:00,46.8,28.1,30.05,SSW,212,2.0,2.0,48,0.00,,,0.00,Wunderground v.1.15,2013-01-19 23:47:00,
2013-01-19 18:53:00,46.5,27.8,30.05,SSW,199,3.0,7.0,48,0.00,,,0.00,Wunderground v.1.15,2013-01-19 23:53:00,
2013-01-19 18:58:00,46.4,27.8,30.05,SW,216,2.0,7.0,48,0.00,,,0.00,Wunderground v.1.15,2013-01-19 23:58:00,
2013-01-19 19:03:00,46.2,27.6,30.05,SSW,192,1.0,2.0,48,0.00,,,0.00,Wunderground v.1.15,2013-01-20 00:03:00,
2013-01-19 19:09:00,46.1,28.0,30.05,SSW,210,2.0,2.0,49,0.00,,,0.00,Wunderground v.1.15,2013-01-20 00:09:00,
2013-01-19 19:15:00,46.0,27.9,30.05,SSW,203,2.0,2.0,49,0.00,,,0.00,Wunderground v.1.15,2013-01-20 00:15:00,
2013-01-19 19:20:00,45.8,27.7,30.05,SSW,200,2.0,4.0,49,0.00,,,0.00,Wunderground v.1.15,2013-01-20 00:20:00,
2013-01-19 19:25:00,45.7,27.6,30.05,SSW,195,2.0,6.0,49,0.00,,,0.00,Wunderground v.1.15,2013-01-20 00:25:00,
2013-01-19 19:31:00,45.5,27.4,30.05,SSW,202,2.0,6.0,49,0.00,,,0.00,Wunderground v.1.15,2013-01-20 00:31:00,
2013-01-19 19:37:00,45.4,27.3,30.05,SSW,206,3.0,7.0,49,0.00,,,0.00,Wunderground v.1.15,2013-01-20 00:37:00,
2013-01-19 19:45:00,45.2,27.2,30.05,SSW,192,2.0,4.0,49,0.00,,,0.00,Wunderground v.1.15,2013-01-20 00:45:00,
2013-01-19 19:50:00,45.1,27.1,30.05,SSE,151,2.0,4.0,49,0.00,,,0.00,Wunderground v.1.15,2013-01-20 00:50:00,
2013-01-19 19:55:00,45.1,27.1,30.05,SSW,199,2.0,2.0,49,0.00,,,0.00,Wunderground v.1.15,2013-01-20 00:55:00,
2013-01-19 20:02:00,45.1,27.6,30.05,SSW,208,1.0,1.0,50,0.00,,,0.00,Wunderground v.1.15,2013-01-20 01:02:00,
2013-01-19 20:08:00,44.9,27.4,30.05,WSW,253,1.0,4.0,50,0.00,,,0.00,Wunderground v.1.15,2013-01-20 01:08:00,
2013-01-19 20:15:00,44.8,27.3,30.04,SSW,202,2.0,6.0,50,0.00,,,0.00,Wunderground v.1.15,2013-01-20 01:15:00,
2013-01-19 20:21:00,44.6,27.1,30.04,SSW,196,3.0,6.0,50,0.00,,,0.00,Wunderground v.1.15,2013-01-20 01:21:00,
2013-01-19 20:27:00,44.6,27.6,30.04,SSW,205,3.0,6.0,51,0.00,,,0.00,Wunderground v.1.15,2013-01-20 01:27:00,
2013-01-19 20:33:00,44.5,27.5,30.03,SSW,200,3.0,3.0,51,0.00,,,0.00,Wunderground v.1.15,2013-01-20 01:33:00,
2013-01-19 20:39:00,44.5,27.5,30.03,SSW,192,3.0,6.0,51,0.00,,,0.00,Wunderground v.1.15,2013-01-20 01:39:00,
2013-01-19 20:47:00,44.3,27.3,30.03,SSW,198,3.0,3.0,51,0.00,,,0.00,Wunderground v.1.15,2013-01-20 01:47:00,
2013-01-19 20:52:00,44.2,27.2,30.03,SSW,202,2.0,2.0,51,0.00,,,0.00,Wunderground v.1.15,2013-01-20 01:52:00,
2013-01-19 20:57:00,44.2,27.2,30.03,South,182,2.0,6.0,51,0.00,,,0.00,Wunderground v.1.15,2013-01-20 01:57:00,
2013-01-19 21:03:00,44.1,27.1,30.03,South,186,3.0,7.0,51,0.00,,,0.00,Wunderground v.1.15,2013-01-20 02:03:00,
2013-01-19 21:08:00,44.1,27.6,30.03,SW,215,2.0,2.0,52,0.00,,,0.00,Wunderground v.1.15,2013-01-20 02:08:00,
2013-01-19 21:14:00,43.9,27.4,30.03,South,178,2.0,7.0,52,0.00,,,0.00,Wunderground v.1.15,2013-01-20 02:14:00,
2013-01-19 21:19:00,43.8,27.3,30.02,SSW,209,2.0,2.0,52,0.00,,,0.00,Wunderground v.1.15,2013-01-20 02:19:00,
2013-01-19 21:25:00,43.8,27.3,30.02,SSW,212,1.0,2.0,52,0.00,,,0.00,Wunderground v.1.15,2013-01-20 02:25:00,
2013-01-19 21:32:00,43.6,27.1,30.01,SSW,205,1.0,1.0,52,0.00,,,0.00,Wunderground v.1.15,2013-01-20 02:32:00,
2013-01-19 21:38:00,43.5,27.5,30.01,West,270,2.0,2.0,53,0.00,,,0.00,Wunderground v.1.15,2013-01-20 02:38:00,
2013-01-19 21:44:00,43.5,27.5,30.00,South,188,2.0,6.0,53,0.00,,,0.00,Wunderground v.1.15,2013-01-20 02:44:00,
2013-01-19 21:49:00,43.5,27.5,30.00,South,178,2.0,7.0,53,0.00,,,0.00,Wunderground v.1.15,2013-01-20 02:49:00,
2013-01-19 21:54:00,43.5,27.5,30.00,SSW,210,2.0,7.0,53,0.00,,,0.00,Wunderground v.1.15,2013-01-20 02:54:00,
2013-01-19 22:00:00,43.5,27.5,30.00,WSW,243,4.0,4.0,53,0.00,,,0.00,Wunderground v.1.15,2013-01-20 03:00:00,
2013-01-19 22:07:00,43.5,27.5,30.00,SW,233,4.0,7.0,53,0.00,,,0.00,Wunderground v.1.15,2013-01-20 03:07:00,
2013-01-19 22:12:00,43.5,27.5,30.00,SSW,202,2.0,7.0,53,0.00,,,0.00,Wunderground v.1.15,2013-01-20 03:12:00,
2013-01-19 22:18:00,43.5,27.5,30.00,SSW,212,3.0,3.0,53,0.00,,,0.00,Wunderground v.1.15,2013-01-20 03:18:00,
2013-01-19 22:24:00,43.5,27.5,30.00,South,189,2.0,6.0,53,0.00,,,0.00,Wunderground v.1.15,2013-01-20 03:24:00,
2013-01-19 22:30:00,43.5,27.5,30.00,WSW,246,3.0,3.0,53,0.00,,,0.00,Wunderground v.1.15,2013-01-20 03:30:00,
2013-01-19 22:36:00,43.5,27.5,30.00,South,191,2.0,2.0,53,0.00,,,0.00,Wunderground v.1.15,2013-01-20 03:36:00,
2013-01-19 22:42:00,43.5,27.5,30.00,South,184,2.0,2.0,53,0.00,,,0.00,Wunderground v.1.15,2013-01-20 03:42:00,
2013-01-19 22:48:00,43.6,27.6,29.99,SE,133,1.0,1.0,53,0.00,,,0.00,Wunderground v.1.15,2013-01-20 03:48:00,
2013-01-19 22:53:00,43.6,27.6,29.99,SSW,196,1.0,4.0,53,0.00,,,0.00,Wunderground v.1.15,2013-01-20 03:53:00,
2013-01-19 22:59:00,43.6,27.6,29.97,SW,223,3.0,4.0,53,0.00,,,0.00,Wunderground v.1.15,2013-01-20 03:59:00,
2013-01-19 23:06:00,43.6,27.6,29.97,WSW,240,3.0,6.0,53,0.00,,,0.00,Wunderground v.1.15,2013-01-20 04:06:00,
2013-01-19 23:12:00,43.6,27.6,29.97,SW,232,4.0,4.0,53,0.00,,,0.00,Wunderground v.1.15,2013-01-20 04:12:00,
2013-01-19 23:17:00,43.8,27.8,29.96,SW,220,3.0,6.0,53,0.00,,,0.00,Wunderground v.1.15,2013-01-20 04:17:00,
2013-01-19 23:22:00,43.8,27.8,29.96,SSW,199,3.0,8.0,53,0.00,,,0.00,Wunderground v.1.15,2013-01-20 04:22:00,
2013-01-19 23:27:00,43.8,27.8,29.96,West,268,3.0,8.0,53,0.00,,,0.00,Wunderground v.1.15,2013-01-20 04:27:00,
2013-01-19 23:33:00,43.8,27.8,29.95,SSW,196,4.0,10.0,53,0.00,,,0.00,Wunderground v.1.15,2013-01-20 04:33:00,
2013-01-19 23:38:00,43.8,27.8,29.95,South,184,3.0,10.0,53,0.00,,,0.00,Wunderground v.1.15,2013-01-20 04:38:00,
2013-01-19 23:44:00,43.8,27.8,29.94,SSW,208,2.0,10.0,53,0.00,,,0.00,Wunderground v.1.15,2013-01-20 04:44:00,
2013-01-19 23:49:00,43.6,27.6,29.94,SSW,193,2.0,10.0,53,0.00,,,0.00,Wunderground v.1.15,2013-01-20 04:49:00,
2013-01-19 23:55:00,43.6,27.6,29.94,SSW,208,3.0,9.0,53,0.00,,,0.00,Wunderground v.1.15,2013-01-20 04:55:00,